Home > Weather > Midland > Past weeks

Flag for U.S.A. Weather for the Past 2 Weeks in Midland, Texas, U.S.A.

Now
71 °F

Sunny.


Feels Like: 74 °F
Forecast: 41 / 72 °F
Wind: 8 mph from Northwest

Location: Midland - Midland Airpark

Current Time: Feb 11, 2016 at 6:40:37 PM

Latest Report: Feb 11, 2016 at 5:15 PM


Visibility: 10 mi

Pressure: 30.14 "Hg (27.32 "Hg at 847m altitude)

Humidity: 18%

Dew point: 25 °F

Location of MidlandLocation

Historic Weather in Midland — Graph

°F

Midland Temperature Yesterday

Maximum temperature yesterday: 75 °F (at 3:55 PM)
Minimum temperature yesterday: 35 °F (at 6:55 AM)
Average temperature yesterday: 54 °F

High & Low Weather Summary for the Past Weeks

 TemperatureHumidityPressure
High80 °F (Jan 30, 3:15 PM)86% (Jan 28, 4:35 AM)30.55 "Hg (Jan 28, 4:35 AM)
Low27 °F (Feb 3, 6:35 AM)7% (Jan 30, 4:15 PM)29.45 "Hg (Feb 1, 3:55 PM)
Average50 °F37%30.14 "Hg
* Reported Jan 27 4:15 PM — Feb 11 4:55 PM, Midland, Weather by CustomWeather, © 2016

Note: Actual official high and low records may vary slightly from our data, if they occured in-between our weather recording intervals... More about our weather records

Advertising

Midland Weather History for the Previous 24 Hours

 ConditionsComfort  
Time TempWeatherWind HumidityBarometerVisibility
4:55 PM
Thu, Feb 11
71 °FSunny.3 mph17%30.13 "Hg10 mi
3:15 PM71 °FSunny.10 mph17%30.13 "Hg10 mi
2:55 PM70 °FSunny.10 mph18%30.13 "Hg10 mi
2:35 PM69 °FSunny.10 mph18%30.13 "Hg10 mi
2:15 PM69 °FSunny.13 mph18%30.14 "Hg10 mi
1:55 PM68 °FSunny.12 mph19%30.14 "Hg10 mi
1:35 PM67 °FSunny.10 mph20%30.15 "Hg10 mi
1:15 PM66 °FSunny.9 mph20%30.16 "Hg10 mi
12:55 PM66 °FSunny.9 mph21%30.17 "Hg10 mi
12:35 PM64 °FSunny.9 mph22%30.17 "Hg10 mi
12:15 PM64 °FSunny.9 mph22%30.17 "Hg10 mi
11:55 AM62 °FSunny.8 mph22%30.18 "Hg10 mi
11:15 AM60 °FSunny.7 mph24%30.18 "Hg10 mi
10:55 AM59 °FSunny.7 mph24%30.19 "Hg10 mi
10:35 AM58 °FSunny.8 mph25%30.19 "Hg10 mi
10:15 AM57 °FSunny.12 mph26%30.19 "Hg10 mi
9:55 AM56 °FSunny.10 mph26%30.18 "Hg10 mi
9:35 AM55 °FSunny.10 mph27%30.18 "Hg10 mi
9:15 AM52 °FSunny.8 mph32%30.18 "Hg10 mi
8:55 AM51 °FSunny.8 mph33%30.16 "Hg10 mi
8:35 AM48 °FSunny.9 mph35%30.15 "Hg10 mi
8:15 AM46 °FSunny.6 mph39%30.15 "Hg10 mi
7:55 AM44 °FSunny.5 mph44%30.14 "Hg10 mi
7:15 AM45 °FClear.7 mph42%30.14 "Hg10 mi
6:55 AM46 °FClear.5 mph41%30.13 "Hg10 mi
6:35 AM46 °FClear.7 mph41%30.13 "Hg10 mi
6:15 AM46 °FClear.6 mph40%30.13 "Hg10 mi
5:55 AM46 °FClear.8 mph42%30.12 "Hg10 mi
5:35 AM49 °FClear.5 mph35%30.12 "Hg10 mi
5:15 AM49 °FClear.6 mph36%30.12 "Hg10 mi
4:55 AM50 °FClear.6 mph35%30.12 "Hg10 mi
4:15 AM53 °FClear.9 mph31%30.12 "Hg10 mi
3:55 AM53 °FClear.9 mph32%30.12 "Hg10 mi
3:35 AM53 °FClear.9 mph31%30.12 "Hg10 mi
3:15 AM53 °FClear.9 mph31%30.12 "Hg10 mi
2:55 AM54 °FClear.9 mph30%30.12 "Hg10 mi
2:15 AM56 °FClear.12 mph27%30.13 "Hg10 mi
1:55 AM57 °FClear.14 mph27%30.13 "Hg10 mi
1:35 AM57 °FClear.14 mph26%30.14 "Hg10 mi
1:15 AM57 °FClear.12 mph26%30.14 "Hg10 mi
12:55 AM58 °FClear.12 mph24%30.14 "Hg10 mi
12:35 AM58 °FClear.13 mph24%30.15 "Hg10 mi
12:15 AM59 °FClear.13 mph23%30.15 "Hg10 mi
11:35 PM
Wed, Feb 10
58 °FClear.14 mph24%30.16 "Hg10 mi
11:15 PM59 °FClear.12 mph24%30.16 "Hg10 mi
10:35 PM58 °FClear.8 mph26%30.16 "Hg10 mi
10:15 PM58 °FClear.8 mph26%30.17 "Hg10 mi
9:35 PM60 °FClear.7 mph23%30.18 "Hg10 mi
9:15 PM61 °FClear.8 mph22%30.18 "Hg10 mi
8:15 PM63 °FClear.8 mph20%30.19 "Hg10 mi
7:55 PM64 °FClear.8 mph19%30.19 "Hg10 mi
7:15 PM65 °FClear.7 mph19%30.19 "Hg10 mi
6:55 PM66 °FClear.8 mph17%30.19 "Hg10 mi
6:15 PM71 °FSunny.8 mph13%30.19 "Hg10 mi
Weather by CustomWeather, © 2016

See weather overviewHow to use our weather pages